Location: Newark
(48.4472°N, 1.4892°E)
Time: 14:10:34
(UTC+00:00)

Transit 4A - Pass Details

Date: 21 January 2021
Orbit: 866 x 978 km, 66.8° (Epoch: 01 March)

Event Time Altitude Azimuth Distance (km) Brightness Sun altitude
Exits shadow 05:41:47 27° 251° (WSW) 1,706 8.8 -18.6°
Drops below altitude 10° 05:46:37 10° 197° (SSW) 2,579 10.1 -17.8°
Sets 05:49:27 0° 185° (S) 3,497 11.0 -17.3°
